Location: Unspecified
(48.2082°N, 0.0000°E)
Time: 02:16:43
(UTC+00:00)

A-11 Canister half - Visible Passes

Search period start: 25 June 2019 00:00
Search period end: 05 July 2019 00:00
Orbit: 1525 x 1683 km, 47.3° (Epoch: 24 June)

Date Brightness Start Highest point End Pass type
(mag) Time Alt. Az. Time Alt. Az. Time Alt. Az.
25 Jun 10.4 01:45:37 10° S 01:51:44 19° SE 01:57:49 10° E visible
26 Jun 10.5 01:25:01 12° SSE 01:30:13 18° SE 01:36:02 10° E visible
27 Jun 10.5 01:04:21 13° SSE 01:08:42 17° SE 01:14:13 10° E visible
27 Jun 9.4 03:02:55 10° SW 03:11:58 50° SSE 03:20:49 10° ENE visible
28 Jun 10.4 00:43:39 13° SSE 00:47:10 16° SE 00:52:22 10° E visible
28 Jun 9.4 02:41:56 12° SW 02:50:23 48° SE 02:59:11 10° ENE visible
29 Jun 10.4 00:22:54 13° SE 00:25:39 15° SE 00:30:29 10° E visible
29 Jun 9.5 02:21:10 15° SSW 02:28:49 46° SE 02:37:34 10° ENE visible
30 Jun 10.5 00:02:05 13° SE 00:04:08 14° SE 00:08:32 10° E visible
30 Jun 9.5 02:00:21 18° SSW 02:07:14 45° SE 02:15:56 10° ENE visible
30 Jun 10.5 23:41:13 13° SE 23:42:37 13° SE 23:46:31 10° E visible
01 Jul 9.5 01:39:29 20° SSW 01:45:40 43° SE 01:54:18 10° ENE visible
01 Jul 10.5 23:20:18 12° SE 23:21:06 12° ESE 23:24:24 10° ESE visible
02 Jul 9.5 01:18:33 22° SSW 01:24:05 41° SE 01:32:41 10° ENE visible
02 Jul 9.1 03:18:48 10° WSW 03:28:22 77° SSE 03:37:42 10° E visible
02 Jul 10.6 22:59:18 11° SE 22:59:35 11° ESE 23:02:07 10° ESE visible
03 Jul 9.5 00:57:33 24° SSW 01:02:31 40° SE 01:11:03 10° ENE visible
03 Jul 9.0 02:57:10 10° WSW 03:06:45 76° SSE 03:16:06 10° E visible
03 Jul 10.6 22:38:14 10° ESE 22:38:14 10° ESE 22:39:20 10° ESE visible
04 Jul 9.5 00:36:28 26° S 00:40:57 38° SE 00:49:24 10° ENE visible
04 Jul 9.0 02:35:32 10° WSW 02:45:08 75° SSE 02:54:29 10° E visible
